STARLINK-2116, 47724

Orbit data source: Space-Track

STARLINK-2116, 47724 is a payload satellite owned by SpaceX/Seattle (US) in LEO that was launched on Thu, 04 Mar 2021 UTC via an FALCON 9 launch vehicle from the Air Force Eastern Test Range (AFETR). Payload-class satellites include a variety of spacecraft equipped with specific instruments for various scientific and technological missions. These include communications satellites like Starlink; space stations such as the ISS; scientific satellites like the Hubble; Earth observation satellites from companies like Planet Labs, Umbra, and HawkEye 360; GPS; miniature CubeSats for education and research; and military/defense satellites.

Loading next visibility...
Identifier
47724, 2021-017C
Orbit
LEO
Country
Flag of USUS
Related business
Manufacturer
SpaceX/Seattle
Mission
Partially operational Commercial Communications
Bus & Motor
STARLINK, Unknown motor
Mass
260 kg wet, ~248 kg dry
Launch date (UTC)
2021-03-04 (5 years ago)
Launch vehicle
FALCON 9
Launch site
Air Force Eastern Test Range (AFETR)
Object type
Payload
Rocket body
Debris
Shape & HBR
Box + 1 Pan, 10.1 m
Radar Cross Section
13.562 m², Large (>1 m²)

Expand to show TLE details & history
Last TLE update: 9 hours ago

TLE from 9 hours ago
0 STARLINK-2116
1 47724U 21017C   25347.00009259  .00164382  00000-0  29881-2 0  9995
2 47724  53.0505 149.0858 0002752 250.0788 343.0242 15.48468586  5867
Epoch: 2025-12-13T00:00Z
TLE epoch observation values (Epoch: 2025-12-13T00:00:07.999Z)
Latitude
-39.92464°
Longitude
-74.12817°
Altitude
432.539 km
Speed
7.653 km/s
True Right ascension
00h 31m 21s
True Declination
-39° 44' 51"
Sunlit
Object was in daylight at epoch
Visualization orbit readout
Latitude
Unknown
Longitude
Unknown
Altitude
Unknown
Speed
Unknown
Apparent Right ascension
Unknown
Apparent Declination
Unknown
Sunlit
N/A
Visualization observer readout
Local Sidereal Time
07:26:32
Azimuth
Unknown
Elevation
Unknown
Doppler factor
Unknown
Orbital elements
Apogee altitude
423.353 km
Perigee altitude
419.61 km
Semi-major axis
6,799.619 km
Eccentricity
0.00028
Inclination
53.0505°
RAAN
149.0858°
Arg. of periapsis
250.0788°
True anomaly
343.01499°
Mean anomaly
343.0242°
Eccentric anomaly
343.0196°
Mean motion
3.87094 °/min
Orbital period
93 mins
BSTAR
0.0029881
Loading maneuver chart data...
Computing Atmospheric mass density...
Loading historical data...
Loading historical data...
Loading historical data...
Loading historical data...
Loading historical data...
Loading historical data...
Loading historical data...

Documentation

Showing up to 5 results
|